Location: Karcze
(52.0945°N, 22.4786°E)
Time: 02:20:15
(UTC+00:00)

A-11 Canister half - Pass Details

Date: 08 August 2021
Orbit: 1514 x 1685 km, 47.2° (Epoch: 16 September)

Event Time Altitude Azimuth Distance (km) Brightness Sun altitude
Rises 18:20:22 0° 280° (W) 4,842 13.3 -2.5°
Reaches altitude 10° 18:23:33 10° 276° (W) 3,876 12.4 -3.0°
Maximum altitude 18:33:03 52° 204° (SSW) 1,993 9.6 -4.2°
Drops below altitude 10° 18:42:44 10° 132° (SE) 3,945 10.5 -5.4°
Enters shadow 18:43:58 - 130° (SE) 4,313 10.7 -5.6°
Sets 18:46:00 0° 128° (SE) 4,933 - -5.8°
